CAPE
1885 1750 1264 1343 1735 1827 1770 1587 1419 1188 1737 1687 1793 1927 1945 1844 1806 1547 1610 1869 1906 1820
1557 1300 1025 855 970 635 321 226 282 333 498 787 585 814 1389 1578 1642 1520 1288 1073 1311 1697
509 207 51 9 0 0 0 0 0 0 7 21 50 174 407 831 1054 950 1278 1469 1541 1256
0 0 0 0 0 0 0 0 0 0 0 0 0 0 20 61 92 223 570 1084 1244 1279
0 0 0 0 0 0 0 0 0 0 0 0 0 0 0 0 2 0 10 272 546 898
0 0 0 0 0 0 1 0 4 2 2 1 0 0 0 2 4 12 61 29 20 151
0 0 0 1 3 4 5 8 8 8 9 5 10 3 1 0 0 0 0 0 0 0
0 0 0 0 0 1 2 3 12 9 9 7 6 0 0 0 0 0 0 0 0 0
0 0 1 0 1 3 1 4 2 0 8 3 0 0 0 1 0 0 0 0 0 0
0 0 0 3 2 3 4 1 0 1 0 1 5 0 0 0 0 0 0 7 10 7
0 0 1 1 2 2 4 2 2 17 15 9 5 0 0 0 0 0 5 19 11 18
0 1 2 3 5 4 2 0 9 15 17 22 1 0 0 0 0 0 0 0 22 35
0 0 2 1 2 4 2 1 3 9 4 16 7 0 0 0 0 0 0 0 19 1
0 0 0 5 2 4 1 1 0 1 8 13 19 0 0 0 0 0 0 0 6 5
CIN
-7 -8 -24 -8 -10 -14 -7 -15 -24 -45 -8 -17 -14 -8 -4 -2 -4 -4 -2 -2 -2 -8
-11 -17 -39 -55 -40 -89 -129 -151 -142 -144 -112 -50 -84 -39 -7 -3 -3 -7 -17 -30 -20 -6
-74 -138 -94 -163 0 0 0 0 0 0 -222 -382 -343 -213 -86 -15 -6 -11 -6 -4 -6 -11
0 0 0 0 0 0 0 0 0 0 0 0 0 -45 -367 -301 -239 -112 -23 -1 -2 -3
0 0 0 0 0 0 0 0 0 0 0 0 0 0 0 0 -4 -6 -180 -61 -12 -3
0 0 0 0 0 0 0 0 -1 -1 -2 0 0 0 0 -2 -3 -108 -214 -244 -253 -197
0 0 0 0 -1 -1 -1 0 -1 -2 -1 -2 -1 -13 -18 0 0 0 0 0 0 0
0 0 0 -1 0 0 -1 -2 -1 -1 -2 -5 -1 0 0 0 0 0 0 0 0 0
0 0 -2 0 -1 0 -1 0 -1 0 -5 -7 0 0 0 -2 0 0 0 0 0 0
0 0 0 -1 0 -1 -1 -1 0 -2 0 -1 -11 0 0 0 0 0 -2 -5 -5 -5
0 0 0 -1 -1 0 -1 -2 -3 -5 -7 -4 -9 0 0 0 0 0 -4 -2 -12 -5
0 0 0 -1 -1 -2 -5 -1 -11 -3 -5 -3 -3 0 0 0 0 0 0 0 -20 -20
0 0 -1 0 -4 -2 -2 -4 -2 -5 -6 -4 -4 0 0 0 0 0 0 0 -1 -19
0 0 0 -4 -2 -3 -4 -1 0 -6 -9 -4 -4 0 0 0 0 0 0 0 -3 -8
Wind_Speed
17 23 26 23 22 23 24 25 26 27 27 28 29 28 27 21 13 12 14 6 7 4
18 18 21 24 25 25 26 27 28 29 30 30 30 30 29 25 28 29 26 17 10 7
18 18 21 22 24 25 26 27 28 29 29 30 30 30 29 28 28 28 25 24 22 18
21 22 20 22 24 25 26 27 28 28 29 29 29 28 29 29 29 29 29 28 25 24
20 20 21 22 23 24 25 26 26 26 26 26 28 28 28 29 30 32 31 26 27 26
21 22 23 23 25 25 25 25 25 25 26 26 26 27 28 30 30 29 29 29 31 32
22 22 23 24 24 26 26 25 25 26 25 26 28 26 28 30 31 32 31 31 31 32
23 23 23 24 26 26 27 27 27 27 27 27 27 27 30 31 31 31 30 29 28 28
23 23 23 25 26 27 27 26 26 27 27 28 28 30 31 32 32 31 30 29 28 29
23 23 24 24 26 26 26 26 25 25 25 26 24 28 31 33 31 29 29 31 29 28
23 23 24 25 26 26 25 26 24 27 24 26 24 28 31 34 30 30 30 32 32 29
22 23 24 24 25 26 26 26 27 26 27 24 24 26 29 33 31 31 32 32 29 30
22 22 23 23 24 23 25 25 25 25 25 23 23 23 28 32 31 32 32 31 30 29
21 22 20 21 23 25 26 26 24 24 24 25 23 23 27 31 31 31 31 31 31 30
Wind_Direction
354 321 282 306 312 310 312 319 323 318 321 315 315 315 319 333 348 343 337 335 332 300
4 359 334 299 296 309 319 319 310 306 304 310 310 314 319 328 317 315 322 332 332 326
9 7 338 323 321 318 318 319 318 314 315 314 314 313 317 321 322 322 328 329 328 328
346 336 347 335 327 329 325 323 323 323 322 323 323 323 322 321 320 320 319 323 328 328
351 347 340 345 340 339 335 333 333 337 338 335 331 329 326 324 320 313 314 327 325 326
345 338 337 337 334 334 337 340 341 341 340 339 338 336 328 316 316 320 321 321 316 314
348 344 340 340 339 337 338 343 343 343 344 340 336 339 330 323 321 321 322 320 318 315
341 339 337 336 334 334 336 337 338 340 339 339 335 337 334 330 328 329 329 328 327 324
336 337 341 339 338 338 341 344 344 342 340 335 333 333 333 332 331 331 332 332 331 327
341 340 343 345 344 345 347 347 347 347 345 342 344 340 336 331 332 335 332 329 329 328
340 338 340 340 343 344 347 344 346 343 348 344 348 343 339 334 337 335 333 331 332 330
341 342 342 344 345 345 344 343 341 345 346 350 349 348 345 340 339 336 333 331 338 337
342 343 345 346 346 349 347 345 345 346 347 350 349 352 346 342 341 338 336 335 337 342
345 347 351 348 348 345 343 344 345 347 347 346 351 354 349 345 343 339 337 337 336 337